EW9778 Weather Reports


time (UTC)temp
F
wind
direction
speed
knots
gust
knots
rain 1hr
in
rain 24hr
in
rain mn
in
humidity
%
barometer
mb
20260502194556 74 82 3.5 7.8 0.00 0.95 0.00 52 1018.1
20260502193054 73 101 3.5 8.7 0.00 0.95 0.00 51 1018.3
20260502191549 73 319 4.3 10.4 0.00 0.95 0.00 52 1018.5
20260502190048 73 90 2.6 8.7 0.00 0.95 0.00 53 1018.4
20260502184558 72 92 4.3 7.8 0.00 1.49 0.00 54 1018.6
20260502183041 72 55 3.5 7.8 0.00 1.49 0.00 55 1018.9
20260502181536 71 30 4.3 8.7 0.00 1.49 0.00 56 1019.1
20260502163030 68 30 3.5 9.6 0.00 2.00 0.00 64 1019.5
20260502161517 67 83 2.6 8.7 0.00 2.00 0.00 65 1019.4
20260502151505 64 69 2.6 8.7 0.00 2.02 0.00 73 1019.3
20260502150108 63 88 2.6 7.0 0.00 2.02 0.00 76 1019.3
20260502123004 53 355 0.9 2.6 0.00 2.25 2.02 90 1017.5
20260502121503 53 338 1.7 4.3 0.00 2.25 2.02 90 1017.4
20260502114602 53 360 0.0 2.6 0.00 2.25 2.02 89 1017.2
20260502113057 53 74 0.9 3.5 0.00 2.25 2.02 89 1017.0
20260502111555 53 35 0.9 4.3 0.00 2.25 2.02 89 1016.8
20260502110059 53 360 0.9 2.6 0.00 2.25 2.02 88 1016.7
20260502104531 53 5 0.9 7.0 0.00 2.37 2.02 88 1016.5
20260502103020 53 15 1.7 5.2 0.00 2.37 2.02 88 1016.3
20260502101515 54 78 0.9 2.6 0.00 2.37 2.02 88 1016.3
20260502091505 55 100 0.9 3.5 0.00 2.81 2.02 86 1015.2
20260502080107 55 26 2.6 7.0 0.00 2.94 2.02 89 1014.8
20260502070055 55 80 0.9 4.3 0.00 2.99 2.02 91 1014.8
20260502064551 55 55 1.7 5.2 0.00 3.01 2.02 92 1014.9
20260502063051 55 60 1.7 7.0 0.00 3.01 2.02 92 1014.6
20260502061547 55 96 0.9 5.2 0.00 3.01 2.02 93 1014.5
20260502060051 55 91 2.6 9.6 0.00 3.01 2.02 93 1014.5
20260502054544 55 88 1.7 10.4 0.00 3.20 2.02 94 1014.5
20260502053051 55 5 2.6 7.0 0.00 3.20 2.02 94 1014.5
20260502051541 55 84 2.6 8.7 0.00 3.20 2.02 94 1014.4
20260502050009 55 91 2.6 8.7 0.00 3.20 2.02 94 1014.3
20260502044510 56 90 2.6 6.1 0.00 3.20 2.02 94 1014.3
20260502043037 55 89 2.6 7.0 0.00 3.20 2.02 94 1014.6
20260502041541 55 33 2.6 7.8 0.00 3.20 2.02 94 1014.3
20260502040004 56 119 1.7 12.2 0.01 3.20 2.02 94 1014.5
20260502034503 56 96 2.6 7.0 0.01 3.20 2.02 94 1014.3
20260502033032 56 62 1.7 5.2 0.01 3.20 2.02 95 1014.0
20260502031528 56 58 2.6 7.0 0.01 3.20 2.02 95 1013.7
20260502030123 56 40 1.7 7.0 0.01 3.19 2.00 95 1013.0
20260502024535 56 61 2.6 6.1 0.03 3.19 2.00 95 1012.6
20260502023019 56 83 0.9 7.8 0.03 3.19 2.00 95 1012.6
20260502021517 57 65 3.5 11.3 0.05 3.19 2.00 95 1012.8
20260502020013 57 53 1.7 5.2 0.06 3.17 1.99 95 1012.2
20260502014523 58 360 2.6 5.2 0.06 3.16 1.98 95 1012.3
20260502013009 58 81 0.9 4.3 0.07 3.16 1.98 95 1011.8
20260502011509 58 65 1.7 5.2 0.08 3.14 1.96 95 1011.3
20260502010038 58 13 4.3 8.7 0.08 3.11 1.93 95 1012.0
20260502004537 58 360 1.7 7.8 0.10 3.10 1.92 95 1011.0
20260502003004 59 53 1.7 3.5 0.10 3.09 1.91 95 1010.4
20260502001504 59 71 1.7 4.3 0.10 3.06 1.88 95 1010.6
20260502000104 58 76 3.5 9.6 0.14 3.03 1.85 95 1010.3
20260501234600 58 42 1.7 10.4 0.12 3.00 1.82 95 1010.8
20260501233056 59 94 3.5 10.4 0.11 2.99 1.81 95 1009.4
20260501231601 59 95 3.5 10.4 0.08 2.96 1.78 95 1009.5
20260501230050 59 120 0.9 7.0 0.01 2.88 1.70 95 1010.2
20260501224552 60 144 2.6 10.4 0.01 2.88 1.70 95 1009.1
20260501223106 60 82 3.5 12.2 0.04 2.88 1.70 95 1009.1
20260501221545 60 101 4.3 11.3 0.10 2.88 1.70 95 1008.9
20260501220042 61 63 2.6 6.1 0.11 2.87 1.69 95 1009.7
20260501214542 61 96 0.9 7.0 0.14 2.87 1.69 95 1009.6
20260501213041 60 56 1.7 9.6 0.17 2.84 1.66 95 1009.9
20260501211540 61 86 0.9 5.2 0.27 2.78 1.60 95 1009.6
20260501210006 61 75 2.6 11.3 0.39 2.75 1.57 95 1008.4
20260501204502 61 72 3.5 9.6 0.37 2.73 1.55 95 1008.4
20260501203107 61 55 2.6 8.7 0.31 2.66 1.48 95 1008.7
20260501201559 61 355 1.7 7.0 0.22 2.49 1.31 95 1008.8
20260501200057 62 72 2.6 8.7 0.10 2.36 1.18 95 1007.8